Probability
0 0 0 0 0 0 0 0 0 0 0 0 0 0 0 0 0 0 0 0 0 0 0 0 0 0 0 0 0 1 2 2 2 3 18 44 61 64
0 0 0 0 0 0 0 0 0 0 0 0 0 0 0 0 0 0 0 0 0 0 0 0 0 0 0 0 0 0 1 1 1 2 14 34 47 50
0 0 0 0 0 0 0 0 0 0 0 0 0 0 0 0 0 0 0 0 0 0 0 0 0 0 0 0 0 0 0 0 0 1 7 19 29 32
0 0 0 0 0 0 0 0 0 0 0 0 0 0 0 0 0 0 0 0 0 0 0 0 0 0 0 0 0 0 0 0 0 1 2 6 13 17
0 0 0 0 0 0 0 0 0 0 0 0 0 0 0 0 0 0 0 0 0 0 0 0 0 0 0 0 0 0 0 0 0 0 0 1 3 5
0 0 0 0 0 0 0 0 0 0 0 0 0 0 0 0 0 0 0 0 0 0 0 0 0 0 0 0 0 0 0 0 0 0 0 0 0 1
0 0 0 0 0 0 0 0 0 0 0 0 0 0 0 0 0 0 0 0 0 0 0 0 0 0 0 0 0 0 0 0 0 0 0 0 0 0
0 0 0 0 0 0 0 0 0 0 0 0 0 0 0 0 0 0 0 0 0 0 0 0 0 0 0 0 0 0 0 0 0 0 0 0 0 0
0 0 0 0 0 0 0 0 0 0 0 0 0 0 0 0 0 0 0 0 0 0 0 0 0 0 0 0 0 0 0 0 0 0 0 0 0 0
0 0 0 0 0 0 0 0 0 0 0 0 0 0 0 0 0 0 0 0 0 0 0 0 0 0 0 0 0 0 0 0 0 0 0 0 0 0
0 0 0 0 0 0 0 0 0 0 0 0 0 0 0 0 0 0 0 0 0 0 0 0 0 0 0 0 0 0 0 0 0 0 0 0 0 0
0 0 0 0 0 0 0 0 0 0 0 0 0 0 0 0 0 0 0 0 0 0 0 0 0 0 0 0 0 0 0 0 0 0 0 0 0 0
0 0 0 0 0 0 0 0 0 0 0 0 0 0 0 0 0 0 0 0 0 0 0 0 0 0 0 0 1 0 0 0 0 0 0 0 0 0
0 0 0 0 0 0 0 0 0 0 0 0 0 0 0 0 0 0 0 0 0 0 0 0 0 0 0 0 0 0 0 0 0 0 0 0 0 0
0 0 0 0 0 0 0 0 0 0 0 0 0 0 0 0 0 0 0 0 0 0 0 0 0 0 0 0 0 0 0 0 0 0 0 0 0 0
0 0 0 0 0 0 0 0 0 0 0 0 0 0 0 0 0 0 0 0 0 0 0 0 0 0 0 0 0 0 0 0 0 0 0 0 0 0
0 0 0 0 0 0 0 0 0 0 0 0 0 0 0 0 0 0 0 0 0 0 0 0 0 0 0 0 0 0 0 0 0 0 0 0 0 0
0 0 0 0 0 0 0 0 0 0 0 0 0 0 0 0 0 0 0 0 0 0 0 0 0 0 0 0 0 0 0 0 0 0 0 0 0 0
0 0 0 0 0 0 0 0 0 0 0 0 0 0 0 0 0 0 0 0 0 0 0 0 0 0 0 0 0 0 0 0 0 0 0 0 0 0
0 0 0 0 0 0 0 0 0 0 0 0 0 0 0 0 0 0 0 0 0 0 0 0 0 0 0 0 0 0 0 0 0 0 0 0 0 0
0 0 0 0 0 0 0 0 0 0 0 0 0 0 0 0 0 0 0 0 0 0 0 0 0 0 0 0 0 0 0 0 0 0 0 0 0 0
0 0 0 0 0 0 0 0 0 0 0 0 0 0 0 0 0 0 0 0 0 0 0 0 0 0 0 0 0 0 0 0 0 0 0 0 0 0
0 0 0 0 0 0 0 0 0 0 0 0 0 0 0 0 0 0 0 0 0 0 0 0 0 0 0 0 0 0 0 0 0 0 0 0 0 0
Wind_Speed
10 10 8 8 7 7 8 8 9 11 11 8 7 8 8 7 12 8 7 15 19 19 19 18 17 17 16 15 14 12 11 10 11 17 24 28 30 30
8 9 9 7 7 7 7 7 7 8 10 7 8 9 10 10 15 10 9 19 19 20 19 19 18 17 16 15 14 13 11 10 10 15 23 27 29 28
9 10 10 10 7 7 7 7 6 7 9 9 8 9 10 9 9 8 9 8 9 18 19 18 18 17 16 15 13 13 12 11 10 12 20 25 27 27
10 10 11 10 10 8 7 8 7 6 7 11 9 8 9 9 8 9 9 10 8 15 18 18 18 17 16 15 13 12 11 10 10 11 16 21 24 26
8 9 10 10 10 9 9 7 6 7 6 8 9 8 7 7 8 9 10 8 10 12 16 16 17 17 16 15 12 11 10 10 9 9 12 17 21 24
8 8 8 9 10 10 8 7 6 6 6 7 8 7 7 7 7 8 9 8 9 10 10 11 13 15 16 14 13 10 10 9 9 8 9 13 17 20
7 7 8 13 17 14 11 8 7 5 5 6 7 8 7 8 7 7 9 10 10 6 6 7 7 6 7 11 11 11 10 10 10 9 10 13 16 17
8 7 8 10 15 20 22 19 16 10 7 5 5 7 8 8 8 8 9 10 8 6 8 9 6 6 6 5 9 11 11 10 11 10 10 14 17 18
7 7 7 8 13 9 12 16 15 18 16 9 6 7 8 9 9 10 9 10 10 9 8 8 5 6 5 6 10 11 11 10 10 11 11 14 17 18
7 6 6 7 10 12 6 7 7 8 12 8 6 8 8 8 8 8 9 10 11 9 7 6 5 5 5 4 8 10 10 10 10 11 12 15 17 18
7 6 6 6 16 18 7 7 8 8 13 17 18 15 16 16 12 6 6 8 8 5 4 4 5 5 4 4 5 9 10 9 10 11 12 15 17 17
5 5 10 13 17 18 6 5 8 8 7 10 11 12 9 10 13 6 5 7 6 6 4 5 4 5 4 2 2 3 5 7 8 11 13 16 19 13
5 4 5 16 17 17 13 6 11 11 6 8 7 6 6 5 5 5 5 6 6 6 4 5 5 4 4 3 2 2 3 3 4 6 11 16 19 16
5 5 7 16 16 16 12 14 17 14 6 6 6 6 7 7 6 7 7 8 8 10 9 7 5 5 5 4 2 1 1 2 3 4 6 12 15 16
6 13 16 17 14 10 13 17 13 6 6 6 7 7 7 7 8 7 7 7 8 8 8 8 8 7 5 4 4 2 1 1 2 3 5 7 8 10
6 10 14 14 11 11 10 8 6 6 7 6 7 7 7 7 7 7 7 7 5 4 5 6 7 7 5 5 4 3 2 1 2 3 4 4 5 6
7 3 4 4 5 4 4 4 4 5 6 6 6 7 8 8 8 7 6 6 5 5 6 5 5 5 6 4 3 2 1 0 1 2 4 4 4 5
8 5 5 5 6 6 6 6 5 5 5 6 6 7 8 8 8 7 7 6 6 6 6 6 5 3 2 1 3 3 2 1 1 3 4 5 4 3
5 5 5 6 6 6 5 5 5 5 4 5 6 7 8 8 8 8 8 7 7 6 6 5 4 4 2 2 4 8 3 1 2 4 4 5 4 3
4 5 5 6 6 5 5 5 4 5 4 5 5 6 7 7 8 8 8 8 8 7 6 5 4 4 2 2 3 5 9 3 3 6 6 7 7 9
5 5 5 6 6 5 5 5 4 4 5 4 5 6 6 7 7 8 8 12 9 6 7 7 7 9 4 1 1 3 6 13 11 5 5 8 7 6
5 6 6 6 6 5 5 5 4 4 4 4 4 5 5 6 7 8 8 8 7 7 7 6 7 5 2 2 3 3 4 7 13 19 17 9 6 7
5 6 6 6 6 5 4 5 5 4 3 3 4 4 5 6 6 6 7 7 7 8 7 6 5 4 3 3 4 4 7 8 8 11 13 20 26 28
Wind_Direction
304 302 299 292 286 284 279 273 278 290 294 292 298 302 308 301 301 298 289 290 289 286 282 280 279 279 279 279 283 292 295 281 248 218 209 205 203 203
307 307 306 302 293 287 285 278 271 276 284 290 296 297 301 306 305 309 301 297 291 287 280 275 272 272 274 274 275 281 287 280 256 223 210 205 203 201
314 315 312 307 305 301 294 290 285 282 286 293 291 295 297 300 303 304 297 291 284 282 279 274 270 267 267 268 267 272 279 276 259 229 212 205 201 198
310 315 316 317 313 307 301 297 293 288 289 296 300 301 300 303 309 309 309 301 292 286 280 273 269 264 260 261 260 263 269 268 256 232 213 203 199 195
299 307 310 314 312 310 311 308 304 310 303 302 305 305 305 317 324 320 314 307 302 293 287 277 269 264 258 256 253 254 256 257 251 233 213 201 195 191
289 297 303 306 305 307 311 310 313 312 312 312 311 315 319 329 332 330 324 321 310 300 294 289 277 269 256 249 242 244 248 251 249 229 209 195 189 185
283 288 298 313 322 326 327 324 325 316 313 318 318 321 325 333 332 326 321 318 308 299 316 301 291 274 253 243 236 235 239 239 241 227 207 191 183 179
285 287 293 308 318 329 328 334 338 328 320 313 312 316 315 317 317 317 318 320 312 324 329 304 290 276 256 232 223 223 229 231 232 222 211 195 184 178
283 284 297 309 323 304 318 335 332 330 328 319 300 294 297 300 302 304 306 304 292 295 298 285 274 271 258 241 222 219 224 227 223 214 207 195 184 179
284 278 276 285 298 314 328 325 312 313 316 312 280 272 278 280 277 287 296 298 288 275 266 271 282 275 274 248 224 220 220 219 214 206 203 194 184 179
291 289 296 284 304 328 342 320 312 308 323 327 325 322 322 323 322 318 312 310 305 301 321 302 299 296 281 253 224 216 215 211 206 202 198 190 182 175
302 301 313 315 322 335 341 320 311 310 322 324 323 322 320 316 323 319 300 299 301 297 332 334 305 306 292 268 223 206 206 205 199 197 193 186 176 173
319 313 304 321 332 338 344 323 324 343 335 320 316 315 315 310 304 293 277 272 274 271 301 331 307 306 298 297 286 221 198 190 193 190 189 182 178 178
317 308 305 325 338 344 342 336 348 351 330 326 326 326 325 322 312 301 289 275 258 258 268 275 274 292 308 301 291 285 210 182 174 172 179 178 178 179
321 327 334 342 346 339 334 346 353 338 328 335 332 327 321 313 310 307 300 291 278 262 257 252 252 264 267 272 292 288 265 178 150 155 167 175 176 173
323 328 338 341 343 339 342 343 337 334 343 334 326 322 320 323 324 325 322 321 313 299 276 263 260 259 261 266 269 282 281 200 150 148 144 145 151 162
337 329 325 326 332 329 328 326 329 337 342 332 329 331 333 334 333 332 327 329 326 324 324 314 285 259 248 276 292 297 297 109 139 140 136 127 131 151
354 335 331 331 331 333 334 332 331 336 336 334 333 335 336 336 336 336 338 337 335 332 329 326 325 316 293 277 349 318 344 36 90 108 122 118 113 126
356 332 329 328 327 327 325 324 324 327 328 333 335 335 337 338 340 342 343 342 340 334 330 330 336 341 345 348 346 0 2 23 92 90 87 97 104 110
334 327 325 323 323 323 322 320 320 324 328 330 331 334 336 339 343 344 342 343 340 336 335 337 342 344 338 326 332 346 9 29 91 101 101 92 81 81
328 326 322 320 320 319 318 316 316 318 324 327 330 333 336 339 342 342 341 345 348 340 340 335 321 320 300 290 41 14 20 39 57 82 111 109 99 89
322 320 318 316 316 314 314 315 317 320 325 329 329 332 335 339 342 342 343 342 341 338 329 321 321 331 358 53 72 61 45 46 49 52 52 70 118 125
316 315 313 313 312 311 312 313 315 317 322 328 332 334 337 341 340 341 342 342 341 341 341 341 348 5 27 53 72 74 73 67 65 66 60 75 89 97